EXS1386 LDPL-EGBB

Flight info

Callsign EXS1386
Flight time N/A
Altitude 36000
Route GIRDA DCT VEKEN DCT ERKIR DCT BABEG DCT ADENU L608 LIRSU DCT ARCKY DCT SPI DCT BUB DCT DENUT L610 HEMEL
Aircraft B738/M-SDE2E3FGHIRWXY/LB1

Departure

Time 2026-05-07 13:11
Airport Pula Airport (LDPL)

Arrival

Time N/A
Airport Birmingham Airport (EGBB)
Time Latitude Longitude Altitude Speed Heading
2026-05-07 12:34 44.89818 13.92406 225 ft 0 kts 33°
2026-05-07 13:05 44.89819 13.92408 225 ft 1 kts 41°
2026-05-07 13:05 44.89818 13.92432 225 ft 5 kts 108°
2026-05-07 13:05 44.89776 13.92454 225 ft 9 kts 178°
2026-05-07 13:06 44.89714 13.92455 225 ft 9 kts 180°
2026-05-07 13:06 44.89653 13.92458 225 ft 9 kts 177°
2026-05-07 13:06 44.89595 13.92452 225 ft 9 kts 217°
2026-05-07 13:06 44.89580 13.92371 225 ft 10 kts 266°
2026-05-07 13:07 44.89576 13.92258 225 ft 14 kts 268°
2026-05-07 13:07 44.89572 13.92106 225 ft 17 kts 268°
2026-05-07 13:07 44.89569 13.91918 225 ft 20 kts 268°
2026-05-07 13:07 44.89564 13.91724 225 ft 19 kts 268°
2026-05-07 13:08 44.89561 13.91537 221 ft 20 kts 269°
2026-05-07 13:08 44.89557 13.91329 214 ft 21 kts 268°
2026-05-07 13:08 44.89551 13.91124 215 ft 21 kts 269°
2026-05-07 13:08 44.89547 13.90924 214 ft 20 kts 268°
2026-05-07 13:09 44.89543 13.90730 222 ft 19 kts 268°
2026-05-07 13:09 44.89502 13.90559 221 ft 19 kts 229°
2026-05-07 13:09 44.89414 13.90429 223 ft 15 kts 225°
2026-05-07 13:09 44.89355 13.90367 226 ft 10 kts 191°
2026-05-07 13:10 44.89317 13.90434 223 ft 13 kts 89°
2026-05-07 13:10 44.89324 13.90782 221 ft 68 kts 88°
2026-05-07 13:10 44.89346 13.91764 224 ft 130 kts 88°
2026-05-07 13:10 44.89378 13.93293 298 ft 173 kts 89°
2026-05-07 13:11 44.89412 13.94976 1057 ft 169 kts 90°
2026-05-07 13:11 44.89449 13.96654 1744 ft 178 kts 90°
2026-05-07 13:11 44.89488 13.98531 2013 ft 208 kts 90°
2026-05-07 13:11 44.89534 14.00653 2398 ft 222 kts 89°
2026-05-07 13:12 44.89917 14.02849 2788 ft 242 kts 59°
2026-05-07 13:12 44.91115 14.04528 3418 ft 248 kts 29°
2026-05-07 13:12 44.92704 14.05561 4097 ft 252 kts 20°
2026-05-07 13:12 44.94346 14.06427 4900 ft 253 kts 18°
2026-05-07 13:13 44.96018 14.07298 5607 ft 258 kts 19°
2026-05-07 13:13 44.97711 14.08201 6325 ft 262 kts 19°
2026-05-07 13:13 44.99425 14.09138 6958 ft 266 kts 20°
2026-05-07 13:13 45.01151 14.10097 7665 ft 268 kts 20°
2026-05-07 13:14 45.02301 14.10738 8149 ft 269 kts 19°
2026-05-07 13:14 45.04101 14.11510 8775 ft 275 kts
2026-05-07 13:14 45.06075 14.11666 9124 ft 290 kts 358°
2026-05-07 13:14 45.08122 14.11709 9761 ft 296 kts 358°
2026-05-07 13:15 45.10199 14.11753 10356 ft 303 kts 358°
2026-05-07 13:15 45.12362 14.11810 10524 ft 326 kts 359°
2026-05-07 13:15 45.14705 14.11887 10721 ft 345 kts 359°
2026-05-07 13:15 45.17146 14.11983 11208 ft 354 kts 359°
2026-05-07 13:16 45.19627 14.12091 11851 ft 358 kts 359°
2026-05-07 13:16 45.22126 14.12205 12551 ft 361 kts 359°
2026-05-07 13:16 45.24647 14.12323 13264 ft 365 kts 359°
2026-05-07 13:16 45.27210 14.12442 13979 ft 372 kts 360°
2026-05-07 13:17 45.29817 14.12563 14671 ft 377 kts 359°
2026-05-07 13:17 45.32457 14.12686 15370 ft 381 kts 359°
2026-05-07 13:17 45.35107 14.12618 16069 ft 381 kts 349°
2026-05-07 13:17 45.37651 14.11768 16743 ft 379 kts 335°
2026-05-07 13:18 45.40084 14.10322 17410 ft 380 kts 332°
2026-05-07 13:18 45.42517 14.08803 18098 ft 383 kts 331°
2026-05-07 13:18 45.44960 14.07273 18762 ft 385 kts 331°
2026-05-07 13:18 45.47425 14.05737 19336 ft 388 kts 330°
2026-05-07 13:19 45.49922 14.04190 19861 ft 393 kts 330°
2026-05-07 13:19 45.52450 14.02632 20355 ft 398 kts 330°
2026-05-07 13:19 45.55017 14.01056 20853 ft 402 kts 330°
2026-05-07 13:19 45.57602 13.99472 21385 ft 405 kts 330°
2026-05-07 13:20 45.60209 13.97877 21914 ft 409 kts 330°
2026-05-07 13:20 45.62837 13.96268 22430 ft 413 kts 330°
2026-05-07 13:20 45.65488 13.94643 22943 ft 417 kts 329°
2026-05-07 13:20 45.68133 13.93021 23409 ft 421 kts 329°
2026-05-07 13:21 45.70804 13.91296 23813 ft 421 kts 324°
2026-05-07 13:21 45.73255 13.89073 24293 ft 415 kts 317°
2026-05-07 13:21 45.75622 13.86685 24714 ft 417 kts 316°
2026-05-07 13:21 45.77984 13.84251 25163 ft 420 kts 316°
2026-05-07 13:22 45.80364 13.81795 25590 ft 422 kts 316°
2026-05-07 13:22 45.82754 13.79345 26021 ft 424 kts 316°
2026-05-07 13:22 45.85167 13.76889 26437 ft 426 kts 316°
2026-05-07 13:22 45.87600 13.74424 26797 ft 430 kts 317°
2026-05-07 13:23 45.90061 13.71940 27202 ft 432 kts 317°
2026-05-07 13:23 45.92525 13.69459 27628 ft 433 kts 317°
2026-05-07 13:23 45.94997 13.66969 27985 ft 436 kts 317°
2026-05-07 13:23 45.97487 13.64458 28344 ft 438 kts 317°
2026-05-07 13:24 45.99991 13.61932 28727 ft 440 kts 317°
2026-05-07 13:24 46.02474 13.59425 29049 ft 443 kts 317°
2026-05-07 13:24 46.04993 13.56876 29464 ft 443 kts 317°
2026-05-07 13:24 46.07514 13.54326 29935 ft 442 kts 317°
2026-05-07 13:25 46.10033 13.51771 30187 ft 445 kts 317°
2026-05-07 13:25 46.12569 13.49192 30416 ft 447 kts 317°
2026-05-07 13:25 46.15115 13.46603 30680 ft 449 kts 317°
2026-05-07 13:25 46.17670 13.44003 31018 ft 449 kts 317°
2026-05-07 13:26 46.20226 13.41403 31296 ft 450 kts 317°
2026-05-07 13:26 46.22793 13.38783 31509 ft 453 kts 317°
2026-05-07 13:26 46.25364 13.36158 31872 ft 451 kts 317°
2026-05-07 13:26 46.27925 13.33543 32307 ft 449 kts 317°
2026-05-07 13:27 46.30460 13.30951 32792 ft 446 kts 317°
2026-05-07 13:27 46.32995 13.28355 33158 ft 445 kts 318°
2026-05-07 13:27 46.35518 13.25766 33567 ft 443 kts 318°
2026-05-07 13:27 46.38034 13.23182 33925 ft 443 kts 317°
2026-05-07 13:28 46.40545 13.20598 34222 ft 443 kts 318°
2026-05-07 13:28 46.43058 13.18009 34451 ft 444 kts 318°
2026-05-07 13:28 46.45547 13.15438 34614 ft 446 kts 318°
2026-05-07 13:28 46.48080 13.12822 34871 ft 446 kts 318°
2026-05-07 13:29 46.50603 13.10217 35174 ft 445 kts 318°
2026-05-07 13:29 46.53124 13.07611 35438 ft 444 kts 318°
2026-05-07 13:29 46.55642 13.05003 35660 ft 445 kts 318°
2026-05-07 13:29 46.58160 13.02393 35905 ft 445 kts 319°
2026-05-07 13:30 46.60679 12.99778 36195 ft 443 kts 319°
2026-05-07 13:30 46.63186 12.97174 36466 ft 442 kts 319°
2026-05-07 13:30 46.65690 12.94569 36641 ft 443 kts 319°
2026-05-07 13:30 46.68203 12.91949 36756 ft 445 kts 319°
2026-05-07 13:31 46.70723 12.89319 36944 ft 445 kts 319°
2026-05-07 13:31 46.73239 12.86692 37231 ft 443 kts 319°
2026-05-07 13:31 46.75710 12.84112 37438 ft 442 kts 319°
2026-05-07 13:31 46.78222 12.81481 37564 ft 444 kts 319°
2026-05-07 13:32 46.80734 12.78849 37749 ft 443 kts 319°
2026-05-07 13:32 46.83231 12.76231 37970 ft 442 kts 319°
2026-05-07 13:32 46.88269 12.70933 37996 ft 448 kts 319°
2026-05-07 13:33 46.93337 12.65595 37984 ft 448 kts 319°
2026-05-07 13:33 46.98384 12.60269 37949 ft 446 kts 319°
2026-05-07 13:34 47.05858 12.52355 37990 ft 443 kts 319°
2026-05-07 13:35 47.10839 12.47065 37981 ft 440 kts 319°
2026-05-07 13:35 47.15805 12.41776 37997 ft 441 kts 319°
2026-05-07 13:36 47.20782 12.36463 37985 ft 442 kts 319°
2026-05-07 13:36 47.25741 12.31157 37999 ft 444 kts 319°
2026-05-07 13:37 47.30745 12.25791 37986 ft 446 kts 319°
2026-05-07 13:37 47.35763 12.20398 37990 ft 447 kts 319°
2026-05-07 13:38 47.40794 12.14978 37989 ft 447 kts 320°
2026-05-07 13:38 47.45823 12.09545 37992 ft 448 kts 320°
2026-05-07 13:39 47.50860 12.04092 37986 ft 449 kts 319°
2026-05-07 13:39 47.55403 11.97993 37988 ft 440 kts 303°
2026-05-07 13:40 47.59051 11.90730 37986 ft 439 kts 302°
2026-05-07 13:40 47.62654 11.83400 38003 ft 440 kts 302°
2026-05-07 13:41 47.66280 11.76085 37994 ft 440 kts 303°
2026-05-07 13:41 47.69924 11.68774 37986 ft 440 kts 303°
2026-05-07 13:42 47.73562 11.61476 37993 ft 439 kts 303°
2026-05-07 13:42 47.77190 11.54181 37999 ft 438 kts 303°
2026-05-07 13:43 47.80782 11.46935 37991 ft 438 kts 303°
2026-05-07 13:43 47.84395 11.39626 38010 ft 438 kts 303°
2026-05-07 13:44 47.88000 11.32315 38029 ft 438 kts 303°
2026-05-07 13:44 47.91601 11.24990 38020 ft 438 kts 303°
2026-05-07 13:45 47.95196 11.17660 38014 ft 437 kts 303°
2026-05-07 13:45 47.98786 11.10320 38014 ft 437 kts 303°
2026-05-07 13:46 48.02373 11.02965 38017 ft 438 kts 303°
2026-05-07 13:46 48.05956 10.95600 38017 ft 438 kts 303°
2026-05-07 13:47 48.09525 10.88243 38020 ft 437 kts 303°
2026-05-07 13:47 48.13072 10.80912 38024 ft 436 kts 303°
2026-05-07 13:48 48.16630 10.73537 38012 ft 436 kts 303°
2026-05-07 13:48 48.20182 10.66157 38019 ft 436 kts 303°
2026-05-07 13:49 48.23720 10.58785 38031 ft 436 kts 303°
2026-05-07 13:49 48.27263 10.51380 38014 ft 436 kts 303°
2026-05-07 13:50 48.30798 10.43975 38021 ft 436 kts 303°
2026-05-07 13:50 48.34313 10.36590 38011 ft 437 kts 302°
2026-05-07 13:51 48.37845 10.29149 38018 ft 437 kts 303°
2026-05-07 13:51 48.41376 10.21690 38020 ft 437 kts 303°
2026-05-07 13:52 48.44904 10.14218 38024 ft 438 kts 302°
2026-05-07 13:52 48.48427 10.06735 38025 ft 438 kts 302°
2026-05-07 13:53 48.51948 9.99235 38016 ft 438 kts 302°
2026-05-07 13:53 48.55106 9.92489 38018 ft 438 kts 302°
2026-05-07 13:54 48.58628 9.84948 38015 ft 439 kts 302°
2026-05-07 13:54 48.62121 9.77446 38014 ft 439 kts 302°
2026-05-07 13:55 48.65633 9.69888 38009 ft 438 kts 302°
2026-05-07 13:55 48.69207 9.62419 38015 ft 439 kts 305°
2026-05-07 13:56 48.72980 9.55136 38023 ft 439 kts 306°
2026-05-07 13:56 48.76770 9.47873 38017 ft 438 kts 306°
2026-05-07 13:57 48.80528 9.40592 38015 ft 438 kts 306°
2026-05-07 13:57 48.84266 9.33291 38019 ft 438 kts 305°
2026-05-07 13:58 48.88000 9.25967 38016 ft 438 kts 305°
2026-05-07 13:58 48.91697 9.18694 38025 ft 437 kts 305°
2026-05-07 13:59 48.95414 9.11362 38023 ft 437 kts 305°
2026-05-07 13:59 48.99121 9.04032 38029 ft 437 kts 305°
2026-05-07 14:00 49.02826 8.96683 38031 ft 437 kts 305°
2026-05-07 14:00 49.06529 8.89322 38033 ft 437 kts 305°
2026-05-07 14:01 49.09608 8.83184 38041 ft 437 kts 305°
2026-05-07 14:01 49.13300 8.75804 38039 ft 438 kts 305°
2026-05-07 14:02 49.16993 8.68404 38033 ft 438 kts 305°
2026-05-07 14:02 49.20683 8.60988 38053 ft 438 kts 305°
2026-05-07 14:03 49.24366 8.53566 38040 ft 438 kts 305°
2026-05-07 14:03 49.28047 8.46127 38042 ft 438 kts 305°
2026-05-07 14:04 49.31729 8.38666 38041 ft 439 kts 305°
2026-05-07 14:04 49.35270 8.31471 38034 ft 439 kts 305°
2026-05-07 14:05 49.38952 8.23968 38032 ft 439 kts 305°
2026-05-07 14:05 49.42502 8.16714 38040 ft 439 kts 305°
2026-05-07 14:06 49.46020 8.09506 38040 ft 439 kts 305°
2026-05-07 14:06 49.49682 8.01980 38047 ft 440 kts 305°
2026-05-07 14:07 49.52942 7.95266 38040 ft 440 kts 305°
2026-05-07 14:07 49.56600 7.87711 38047 ft 440 kts 305°
2026-05-07 14:08 49.60252 7.80145 38045 ft 440 kts 305°
2026-05-07 14:08 49.63903 7.72560 38044 ft 440 kts 305°
2026-05-07 14:09 49.67530 7.65004 38044 ft 440 kts 304°
2026-05-07 14:09 49.71194 7.57348 38040 ft 440 kts 304°
2026-05-07 14:10 49.74807 7.49777 38039 ft 440 kts 304°
2026-05-07 14:10 49.78445 7.42132 38034 ft 441 kts 304°
2026-05-07 14:11 49.82070 7.34492 38038 ft 441 kts 304°
2026-05-07 14:11 49.85699 7.26822 38036 ft 441 kts 304°
2026-05-07 14:12 49.89320 7.19147 38040 ft 441 kts 304°
2026-05-07 14:12 49.92932 7.11467 38050 ft 440 kts 304°
2026-05-07 14:13 49.96515 7.03827 38049 ft 440 kts 304°
2026-05-07 14:13 50.00120 6.96122 38032 ft 441 kts 304°
2026-05-07 14:14 50.03615 6.88297 38032 ft 440 kts 299°
2026-05-07 14:14 50.06576 6.79958 38041 ft 439 kts 296°
2026-05-07 14:15 50.09470 6.71546 38036 ft 440 kts 297°
2026-05-07 14:15 50.12383 6.63239 38033 ft 440 kts 297°
2026-05-07 14:16 50.15331 6.54886 38023 ft 440 kts 297°
2026-05-07 14:16 50.18280 6.46504 38024 ft 440 kts 297°
2026-05-07 14:17 50.21219 6.38119 38033 ft 440 kts 297°
2026-05-07 14:17 50.24156 6.29718 38032 ft 440 kts 297°
2026-05-07 14:18 50.27086 6.21308 38039 ft 440 kts 297°
2026-05-07 14:18 50.30020 6.12892 38038 ft 440 kts 298°
2026-05-07 14:19 50.33345 6.04814 38045 ft 441 kts 303°
2026-05-07 14:19 50.36830 5.96898 38043 ft 441 kts 303°
2026-05-07 14:20 50.40252 5.88981 38050 ft 441 kts 302°
2026-05-07 14:20 50.43653 5.80983 38044 ft 441 kts 302°
2026-05-07 14:21 50.47042 5.72971 38060 ft 441 kts 302°
2026-05-07 14:21 50.50426 5.64956 38055 ft 440 kts 302°
2026-05-07 14:22 50.53658 5.56782 38069 ft 440 kts 298°
2026-05-07 14:22 50.56653 5.48407 38066 ft 440 kts 297°
2026-05-07 14:23 50.59639 5.39996 38073 ft 439 kts 297°
2026-05-07 14:23 50.62643 5.31604 38075 ft 439 kts 298°
2026-05-07 14:24 50.65456 5.23767 38075 ft 439 kts 297°
2026-05-07 14:24 50.68244 5.15984 38074 ft 439 kts 297°
2026-05-07 14:25 50.71247 5.07571 38074 ft 439 kts 297°
2026-05-07 14:25 50.74241 4.99152 38069 ft 439 kts 297°
2026-05-07 14:26 50.77226 4.90730 38068 ft 439 kts 297°
2026-05-07 14:26 50.80213 4.82276 38067 ft 440 kts 297°
2026-05-07 14:27 50.83168 4.73884 38073 ft 439 kts 297°
2026-05-07 14:27 50.86136 4.65428 38080 ft 440 kts 297°
2026-05-07 14:28 50.89104 4.56946 38075 ft 440 kts 297°
2026-05-07 14:28 50.92137 4.48515 38075 ft 440 kts 299°
2026-05-07 14:29 50.95353 4.40256 38078 ft 440 kts 300°
2026-05-07 14:29 50.98578 4.31977 38078 ft 440 kts 300°
2026-05-07 14:30 51.01769 4.23670 38074 ft 441 kts 299°
2026-05-07 14:30 51.04940 4.15347 38075 ft 440 kts 299°
2026-05-07 14:31 51.08107 4.07003 38073 ft 440 kts 299°
2026-05-07 14:31 51.11245 3.98710 38071 ft 440 kts 299°
2026-05-07 14:32 51.14402 3.90341 38073 ft 440 kts 299°
2026-05-07 14:32 51.17549 3.81973 38069 ft 441 kts 299°
2026-05-07 14:33 51.20695 3.73582 38076 ft 441 kts 299°
2026-05-07 14:33 51.23582 3.64989 38064 ft 438 kts 289°
2026-05-07 14:34 51.25024 3.55608 38074 ft 435 kts 279°
2026-05-07 14:34 51.26188 3.46132 38068 ft 435 kts 280°
2026-05-07 14:35 51.27414 3.36740 38077 ft 435 kts 280°
2026-05-07 14:35 51.28466 3.28682 38076 ft 436 kts 280°
2026-05-07 14:36 51.29593 3.19975 38071 ft 436 kts 280°
2026-05-07 14:36 51.30813 3.10484 38079 ft 436 kts 280°
2026-05-07 14:37 51.32026 3.00975 38074 ft 436 kts 280°
2026-05-07 14:37 51.33825 2.86766 38073 ft 436 kts 280°
2026-05-07 14:38 51.35020 2.77250 38075 ft 436 kts 280°
2026-05-07 14:38 51.36201 2.67714 38072 ft 436 kts 279°
2026-05-07 14:39 51.37364 2.58172 38079 ft 436 kts 279°
2026-05-07 14:39 51.38522 2.48628 38082 ft 437 kts 279°
2026-05-07 14:40 51.39665 2.39144 38080 ft 437 kts 279°
2026-05-07 14:40 51.40810 2.29583 38073 ft 437 kts 279°
2026-05-07 14:41 51.41961 2.20027 38078 ft 437 kts 279°
2026-05-07 14:41 51.43132 2.10470 38087 ft 437 kts 279°
2026-05-07 14:42 51.44292 2.00912 38087 ft 436 kts 279°
2026-05-07 14:42 51.45435 1.91343 38091 ft 436 kts 279°
2026-05-07 14:43 51.46546 1.81859 38072 ft 436 kts 279°
2026-05-07 14:43 51.47639 1.72293 38082 ft 436 kts 279°
2026-05-07 14:44 51.48728 1.62726 38085 ft 436 kts 279°
2026-05-07 14:44 51.49812 1.53151 38082 ft 436 kts 278°
2026-05-07 14:45 51.50889 1.43579 38086 ft 435 kts 278°
2026-05-07 14:45 51.51954 1.34044 37666 ft 438 kts 278°
2026-05-07 14:46 51.52486 1.29262 37304 ft 432 kts 278°
2026-05-07 14:46 51.53008 1.24549 36967 ft 426 kts 278°
2026-05-07 14:46 51.53523 1.19887 36564 ft 422 kts 278°
2026-05-07 14:46 51.54031 1.15261 36195 ft 418 kts 278°
2026-05-07 14:47 51.54533 1.10673 35825 ft 414 kts 278°
2026-05-07 14:47 51.55030 1.06137 35452 ft 411 kts 278°
2026-05-07 14:47 51.55522 1.01634 35080 ft 408 kts 278°
2026-05-07 14:47 51.56008 0.97162 34711 ft 404 kts 278°
2026-05-07 14:48 51.56328 0.94207 34467 ft 402 kts 278°
2026-05-07 14:48 51.56803 0.89784 34102 ft 399 kts 278°
2026-05-07 14:48 51.57271 0.85402 33684 ft 397 kts 278°
2026-05-07 14:48 51.57737 0.81034 33278 ft 394 kts 278°
2026-05-07 14:49 51.58196 0.76708 32895 ft 391 kts 278°
2026-05-07 14:49 51.58652 0.72416 32538 ft 387 kts 278°
2026-05-07 14:49 51.59101 0.68163 32166 ft 384 kts 278°
2026-05-07 14:49 51.59545 0.63940 31812 ft 381 kts 278°
2026-05-07 14:50 51.60014 0.59756 31454 ft 378 kts 279°
2026-05-07 14:50 51.60509 0.55618 31110 ft 376 kts 278°
2026-05-07 14:50 51.60945 0.51533 30760 ft 373 kts 278°
2026-05-07 14:50 51.61359 0.47430 30432 ft 370 kts 277°
2026-05-07 14:51 51.61767 0.43346 30089 ft 368 kts 277°
2026-05-07 14:51 51.62173 0.39297 29689 ft 365 kts 277°
2026-05-07 14:51 51.62577 0.35283 29336 ft 361 kts 277°
2026-05-07 14:51 51.62991 0.31309 28987 ft 357 kts 280°
2026-05-07 14:52 51.63777 0.27540 28690 ft 356 kts 295°
2026-05-07 14:52 51.65079 0.24157 28421 ft 355 kts 305°
2026-05-07 14:52 51.66702 0.21133 28162 ft 360 kts 309°
2026-05-07 14:52 51.68371 0.18163 27917 ft 364 kts 310°
2026-05-07 14:53 51.70081 0.15131 27641 ft 365 kts 310°
2026-05-07 14:53 51.71779 0.12110 27363 ft 361 kts 310°
2026-05-07 14:53 51.73455 0.09112 27101 ft 359 kts 309°
2026-05-07 14:53 51.75122 0.06118 26836 ft 356 kts 309°
2026-05-07 14:54 51.76766 0.03154 26579 ft 352 kts 309°
2026-05-07 14:54 51.78394 0.00211 26256 ft 349 kts 309°
2026-05-07 14:54 51.80001 -0.02701 25925 ft 347 kts 309°
2026-05-07 14:54 51.81598 -0.05601 25595 ft 344 kts 309°
2026-05-07 14:55 51.83188 -0.08491 25266 ft 343 kts 309°
2026-05-07 14:55 51.84770 -0.11371 24903 ft 341 kts 309°
2026-05-07 14:55 51.86341 -0.14235 24594 ft 339 kts 309°
2026-05-07 14:55 51.87903 -0.17083 24269 ft 338 kts 309°
2026-05-07 14:56 51.89437 -0.19887 23953 ft 336 kts 309°
2026-05-07 14:56 51.90984 -0.22716 23627 ft 335 kts 309°
2026-05-07 14:56 51.92523 -0.25533 23253 ft 333 kts 309°
2026-05-07 14:56 51.94055 -0.28341 22898 ft 331 kts 309°
2026-05-07 14:57 51.95577 -0.31132 22582 ft 328 kts 309°
2026-05-07 14:57 51.97088 -0.33907 22253 ft 326 kts 309°
2026-05-07 14:57 51.98585 -0.36659 21932 ft 324 kts 309°
2026-05-07 14:57 52.00072 -0.39398 21614 ft 322 kts 309°
2026-05-07 14:58 52.01551 -0.42123 21306 ft 320 kts 309°
2026-05-07 14:58 52.02985 -0.44769 20999 ft 318 kts 309°
2026-05-07 14:58 52.04446 -0.47466 20699 ft 316 kts 309°
2026-05-07 14:58 52.05875 -0.50107 20394 ft 315 kts 309°